Simultaneous Nadir Overpasses (SNOs) Predictions

Prediction of SNOs between AQUA and GOES-15 Satellite Orbit:

Table of predicted SNOs for the next 14.0 days since TLE Epoch: 8/19/2016
Index Date Time (AQUA) AQUA Lat,Lon GOES-15 Lat,Lon Distance(km) Time Diff (sec)
1 08/20/2016 22:22:20 0.31,-131.83 -0.37,-134.97 357.57 80
2 08/21/2016 10:43:34 0.81,-136.98 0.38,-135.01 224.65 80
3 08/23/2016 10:31:22 0.17,-134.02 0.38,-135.08 119.08 80
4 08/23/2016 22:52:46 -1.27,-139.22 -0.38,-135.07 471.80 80
5 08/25/2016 10:19:10 -0.47,-131.07 0.37,-135.14 462.07 80
6 08/25/2016 22:40:34 -0.62,-136.26 -0.37,-135.13 128.83 80
7 08/27/2016 22:28:22 0.03,-133.31 -0.37,-135.19 213.57 80
8 08/28/2016 10:49:38 1.04,-138.47 0.37,-135.23 368.35 80
9 08/30/2016 10:37:26 0.38,-135.52 0.36,-135.28 26.60 80
10 09/01/2016 10:25:13 -0.22,-132.55 0.36,-135.33 315.39 80
11 09/01/2016 22:46:37 -0.85,-137.75 -0.36,-135.31 276.81 80




NCC Satellite Simultaneous Nadir Overpasses (SNOs) Prediction Service
